AKDT,Max TemperatureF,Mean TemperatureF,Min TemperatureF,Max Dew PointF,MeanDew PointF,Min DewpointF,Max Humidity, Mean Humidity, Min Humidity, Max Sea Level PressureIn, Mean Sea Level PressureIn, Min Sea Level PressureIn, Max VisibilityMiles, Mean VisibilityMiles, Min VisibilityMiles, Max Wind SpeedMPH, Mean Wind SpeedMPH, Max Gust SpeedMPH,PrecipitationIn, CloudCover, Events, WindDirDegrees
2013-8-1,68,60,53,52,50,48,83,71,52,30.15,30.08,30.00,10,10,10,8,4,,0.00,5,Rain,258
2013-8-2,69,60,55,53,49,46,75,62,47,30.01,29.89,29.69,10,10,10,10,4,,0.01,7,Rain,88
2013-8-3,64,61,59,51,48,46,70,63,56,29.91,29.78,29.67,10,10,10,23,8,33,0.00,7,Rain,143
2013-8-4,64,60,57,52,50,47,81,71,54,29.99,29.96,29.92,10,10,7,7,3,,0.03,8,Rain,251
2013-8-5,62,58,55,52,50,47,83,75,60,29.99,29.96,29.93,10,10,10,9,2,,0.01,8,Rain,77
2013-8-6,66,60,55,52,50,47,83,70,60,29.91,29.85,29.81,10,10,10,14,6,,0.02,8,Rain,59
2013-8-7,64,60,55,50,49,48,77,67,58,29.80,29.75,29.69,10,10,10,6,4,,0.00,8,Rain,72
2013-8-8,60,55,50,50,46,41,88,69,51,29.83,29.76,29.70,10,10,10,14,6,28,0.00,6,,128
2013-8-9,63,58,54,51,48,45,80,72,64,29.77,29.70,29.63,10,10,10,10,5,,0.06,7,Rain,276
2013-8-10,64,56,48,49,47,45,93,78,52,30.02,29.87,29.78,10,8,0,12,3,,0.00,4,Fog,192
2013-8-11,55,53,51,52,50,46,94,86,80,30.04,30.00,29.97,10,6,4,8,2,,0.73,7,Rain,18
2013-8-12,63,58,53,55,52,50,94,85,72,30.04,30.01,29.98,10,8,1,6,1,,0.45,8,Fog-Rain,124
2013-8-13,62,58,55,53,50,39,89,79,51,30.04,30.02,30.00,10,10,6,7,3,,0.00,5,,260
2013-8-14,63,54,46,49,45,42,86,71,53,30.05,30.00,29.93,10,10,10,13,4,20,0.00,3,,231
2013-8-15,63,54,48,50,47,43,86,76,62,29.92,29.85,29.79,10,10,10,14,5,,0.00,3,,224
2013-8-16,59,52,48,53,49,45,88,83,77,29.79,29.70,29.58,10,10,7,8,3,,0.12,7,Rain,58
2013-8-17,64,59,54,54,50,48,87,76,63,29.57,29.53,29.50,10,10,10,9,4,,0.00,7,Rain,67
2013-8-18,63,58,53,54,51,48,86,80,67,29.67,29.56,29.51,10,10,5,7,2,,0.02,7,Rain,79
2013-8-19,60,56,53,52,51,48,87,80,67,29.78,29.73,29.68,10,9,2,7,1,,0.18,8,Rain,275
2013-8-20,62,54,48,52,48,45,93,81,65,29.90,29.84,29.78,10,7,0,10,2,17,0.02,7,Fog-Rain,250
2013-8-21,57,55,53,52,51,47,94,85,69,29.90,29.83,29.77,10,7,2,9,2,,0.59,8,Rain,286
2013-8-22,57,55,53,52,51,50,94,87,81,29.78,29.76,29.73,10,8,0,10,2,,0.19,8,Fog-Rain,1
2013-8-23,59,55,48,52,49,43,88,77,69,29.72,29.65,29.58,10,10,10,12,5,16,0.00,4,,238
2013-8-24,72,58,46,49,43,37,86,64,29,29.73,29.67,29.60,10,10,9,16,3,23,0.00,1,,313
2013-8-25,64,52,43,49,43,38,82,67,50,29.75,29.73,29.70,10,10,10,8,3,,0.00,0,,220
2013-8-26,62,52,44,49,45,40,86,75,60,29.78,29.76,29.74,10,10,10,12,5,,0.00,3,Fog,308
2013-8-27,64,56,50,49,47,45,83,71,52,29.83,29.81,29.79,10,10,10,15,2,,0.00,6,,242
2013-8-28,59,55,53,51,47,43,89,75,67,29.79,29.65,29.50,10,8,3,7,3,,0.41,7,Rain,246
2013-8-29,62,58,53,52,50,48,88,81,62,29.86,29.61,29.47,10,8,5,14,3,,0.51,8,Rain,45
2013-8-30,61,57,52,54,51,48,94,87,67,29.99,29.96,29.89,10,4,0,6,1,,0.00,7,Fog-Rain,141
2013-8-31,62,54,48,51,47,45,89,77,60,29.98,29.91,29.86,10,10,5,12,3,,0.04,6,Rain,4